Fortaleza - Pinto Martins, Brazil

12:48 PM BRT on July 23, 2018 (GMT -0300)
Pinto Martins International

Weather History for SBFZ - April, 2018

Change the Weather History Date:

Monday, April 16, 2018

  Actual Average Record
Temperature  
Mean Temperature 78 °F -  
Max Temperature 84 °F 84 °F 89 °F (1997)
Min Temperature 72 °F 74 °F 72 °F (2018)
Cooling Degree Days 13    
Growing Degree Days 28 (Base 50)    
Moisture  
Dew Point 75 °F    
Average Humidity 85    
Maximum Humidity 100    
Minimum Humidity 65    
Precipitation  
Precipitation 0.43 in - - ()
Sea Level Pressure  
Sea Level Pressure 29.90 in    
Wind  
Wind Speed 4 mph ()    
Max Wind Speed 13 mph    
Max Gust Speed -    
Visibility 6.7 miles    
Events Rain , Thunderstorm    
Averages and records for this station are not official NWS values.
T = Trace of Precipitation, MM = Missing Value Source: Averaged Metar Reports

Daily Weather History Graph

Daily Weather History Graph

Search for Another Location

Airport or City:

Astronomy

Apr. 16, 2018 Rise Set
Actual Time 5:33 AM BRT 5:34 PM BRT
Civil Twilight 5:12 AM BRT 5:55 PM BRT
Nautical Twilight 4:47 AM BRT 6:19 PM BRT
Astronomical Twilight 4:23 AM BRT 6:44 PM BRT
Moon 5:58 AM BRT (4/16) 6:17 PM BRT (4/16)
Length of Visible Light 12h 43m
Length of Day
12h 01m
New Moon, 0% of the Moon is Illuminated
Apr 16
New Moon
Apr 22
First Quarter
Apr 29
Full
May 7
Last Quarter
May 15
New

Hourly Weather History & Observations

Time (BRT) Temp. Heat Index Dew Point Humidity Pressure Visibility Wind Dir Wind Speed Gust Speed Precip Events Conditions
12:00 AM 78.8 °F - 77.0 °F 94% 29.92 in 6.2 mi North 2.3 mph - N/A   Mostly Cloudy
1:00 AM 78.8 °F - 77.0 °F 94% 29.89 in 6.2 mi Variable 2.3 mph - N/A   Mostly Cloudy
2:00 AM 78.8 °F - 77.0 °F 94% 29.89 in 6.2 mi Variable 2.3 mph - N/A   Mostly Cloudy
3:00 AM 79 °F - 78 °F 95% 29.87 in 12 mi SW 1.2 mph - -   Partly Cloudy
3:00 AM 78.8 °F - 77.0 °F 94% 29.86 in 6.2 mi Variable 1.2 mph - N/A   Mostly Cloudy
4:00 AM 77.0 °F - 77.0 °F 100% - 3.7 mi South 4.6 mph - N/A Rain , Thunderstorm Light Thunderstorms and Rain
5:00 AM 73.4 °F - 71.6 °F 94% 29.89 in 3.7 mi South 6.9 mph - N/A Rain , Thunderstorm Light Thunderstorms and Rain
6:00 AM 73.4 °F - 73.4 °F 100% 29.92 in 3.7 mi Variable 1.2 mph - N/A Rain Light Rain
7:00 AM - - 73.4 °F N/A% 29.95 in 3.7 mi Variable 2.3 mph - N/A Rain Light Rain
8:00 AM 75.2 °F - 73.4 °F 94% 29.92 in 6.2 mi SSW 3.5 mph - N/A   Mostly Cloudy
9:00 AM 79 °F - 74 °F 82% 29.97 in 12 mi SSE 5.8 mph - -   Partly Cloudy
9:00 AM 78.8 °F - 75.2 °F 89% 29.98 in 6.2 mi SSE 5.8 mph - N/A   Mostly Cloudy
10:00 AM 82.4 °F 90.9 °F 77.0 °F 84% 29.95 in 6.2 mi South 6.9 mph - N/A   Mostly Cloudy
11:00 AM 82.4 °F 89.5 °F 75.2 °F 79% 29.95 in 6.2 mi SE 11.5 mph - N/A   Mostly Cloudy
12:00 PM 84.2 °F 90.9 °F 73.4 °F 70% 29.92 in 6.2 mi SE 10.4 mph - N/A   Mostly Cloudy
1:00 PM 84.2 °F 92.3 °F 75.2 °F 74% 29.89 in 6.2 mi ESE 12.7 mph - N/A   Mostly Cloudy
2:00 PM 84.2 °F 92.3 °F 75.2 °F 74% 29.86 in 6.2 mi East 9.2 mph - N/A   Scattered Clouds
3:00 PM 85 °F - 75 °F 65% 29.84 in 12 mi East 8.1 mph - -   Mostly Cloudy
3:00 PM 84.2 °F 92.3 °F 75.2 °F 74% 29.83 in 6.2 mi East 8.1 mph - N/A   Scattered Clouds
4:00 PM 82.4 °F 88.2 °F 73.4 °F 74% 29.86 in 6.2 mi East 11.5 mph - N/A   Mostly Cloudy
5:00 PM 82.4 °F 88.2 °F 73.4 °F 74% 29.86 in 6.2 mi East 10.4 mph - N/A   Mostly Cloudy
6:00 PM 80.6 °F 85.4 °F 73.4 °F 79% 29.86 in 6.2 mi East 8.1 mph - N/A   Mostly Cloudy
7:00 PM 80.6 °F 86.2 °F 75.2 °F 84% 29.89 in 6.2 mi East 8.1 mph - N/A   Mostly Cloudy
8:00 PM 80.6 °F 86.2 °F 75.2 °F 84% 29.89 in 6.2 mi East 4.6 mph - N/A   Mostly Cloudy
9:00 PM 81 °F - 76 °F 80% 29.93 in 12 mi East 5.8 mph - -   Partly Cloudy
9:00 PM 80.6 °F 86.2 °F 75.2 °F 84% 29.92 in 6.2 mi East 5.8 mph - N/A   Mostly Cloudy
10:00 PM 80.6 °F 87.1 °F 77.0 °F 89% 29.92 in 6.2 mi East 4.6 mph - N/A   Mostly Cloudy
11:00 PM 78.8 °F - 75.2 °F 89% 29.92 in 6.2 mi ESE 4.6 mph - N/A   Scattered Clouds